Regional Weather Roundup
Issued by NWS

Home | Current Version | Previous Version | Graphics & Text | Print | Product List | Glossary On
Versions: 1 2 3 4 5 6 7 8 9 10 11 12 13 14 15 16 17 18 19 20 21 22 23 24 25 26 27 28 29 30 31 32 33 34 35 36 37 38 39 40 41 42 43 44 45 46 47 48 49 50
000
ASUS43 KDTX 231710
RWRMI
MICHIGAN HOURLY REGIONAL WEATHER ROUNDUP
NATIONAL WEATHER SERVICE DETROIT/PONTIAC MI
100 PM EDT TUE AUG 23 2016

NOTE: "FAIR" INDICATES FEW OR NO CLOUDS BELOW 12,000 FEET WITH NO
SIGNIFICANT WEATHER AND/OR OBSTRUCTION TO VISIBILITY.

MIZ047>049-052>055-059>063-066>070-074>076-081>083-231800-
SOUTHEAST LOWER MICHIGAN

CITY           SKY/WX    TMP DP  RH WIND       PRES   REMARKS
ADRIAN         SUNNY     77  60  55 SW10      30.28F
ALMA           MOSUNNY   77  63  62 SW13G21   30.25S
ANN ARBOR      MOSUNNY   77  58  51 S12G23    30.27S
BAD AXE        SUNNY     76  59  55 W15G21    30.24F
CARO           SUNNY     78  61  57 SW9G17    30.24S
DETROIT CITY   SUNNY     77  58  51 SW8G18    30.27S
DETROIT        PTSUNNY   81  59  46 SW12      30.27F
FLINT          SUNNY     80  59  48 SW9G20    30.25F
GROSSE ILE     SUNNY     78  61  56 S12       30.27S
HILLSDALE      PTSUNNY   75  59  57 S8        30.28F
HOWELL         MOSUNNY   77  57  50 SW9       30.27S

CITY           SKY/WX    TMP DP  RH WIND       PRES   REMARKS
JACKSON        MOSUNNY   77  56  48 SW15      30.27S
LAMBERTVILLE   MOSUNNY   78  59  50 S8        30.28S
LANSING        MOSUNNY   78  57  48 S9        30.26S
LAPEER         FAIR      79  57  47 SW9       30.26S
MASON          MOSUNNY   77  58  52 S7        30.26F
MONROE         MOSUNNY   79  60  53 S9        30.27S
MT. CLEMENS    MOSUNNY   80  59  47 SW12      30.24F
PONTIAC        MOSUNNY   77  57  50 SW13      30.26F
PORT HOPE        N/A     77  60  55 SW10G20   30.21F
PORT HURON     SUNNY     77  59  53 SW8       30.27R
TRI CITIES     SUNNY     77  61  57 SW16      30.24R
MIDLAND        FAIR      78  60  52 SW14G20   30.22S
TROY           SUNNY     80  52  38 S10G16    30.28F
SAGINAW HB     SUNNY     79  61  53 SW12      30.24S
$$
MIZ043>046-050>051-056>058-064>065-071>073-077>080-231800-
SOUTHWEST LOWER MICHIGAN

CITY           SKY/WX    TMP DP  RH WIND       PRES   REMARKS
BATTLE CREEK   MOSUNNY   75  60  59 S16       30.27S
BENTON HARBOR  MOSUNNY   76  58  53 SW12      30.23F
BIG RAPIDS     SUNNY     77  60  56 SW12      30.22S
COLDWATER      MOSUNNY   76  58  54 S6        30.27F
FREMONT        FAIR      76  60  58 SW12G17   30.22S
HOLLAND        MOSUNNY   78  60  53 SW15      30.24F
GRAND RAPIDS   MOSUNNY   77  58  51 SW14      30.25S
IONIA          FAIR      77  56  48 S13       30.24F
KALAMAZOO      MOSUNNY   77  58  51 S14G21    30.25F
LUDINGTON      SUNNY     76  65  68 SW15G26   30.19S
MARSHALL       PTSUNNY   77  59  53 S6        30.26F
MOUNT PLEASANT MOSUNNY   80  60  51 SW10      30.22S
MUSKEGON       PTSUNNY   78  64  61 SW14G25   30.23S
SOUTH HAVEN    MOSUNNY   79  60  52 SW7       30.23F
$$
MIZ016>042-231800-
NORTHERN LOWER MICHIGAN

CITY           SKY/WX    TMP DP  RH WIND       PRES   REMARKS
ALPENA         SUNNY     82  58  43 SW13      30.15F
BEAVER ISLAND  SUNNY     76  65  69 SW18G29   30.11S
BELLAIRE       SUNNY     79  61  53 SW10G21   30.15S
CADILLAC       MOSUNNY   76  60  58 SW13      30.20F
CHARLEVOIX     MOSUNNY   80  63  55 SW12G18   30.17R
FRANKFORT      SUNNY     77  64  63 SW15G22   30.17S
GAYLORD        SUNNY     79  60  52 SW15      30.17S
GRAYLING       SUNNY     80  61  51 SW12G17   30.19S
HARBOR SPRINGS SUNNY     78  64  62 SW12      30.14R
HOUGHTON LAKE  SUNNY     77  60  55 SW13      30.21F
MANISTEE       MOSUNNY   79  61  53 SW12G22   30.18S
OSCODA         SUNNY     80  60  50 SW14G22   30.18S
PELLSTON       SUNNY     80  60  50 SW15G28   30.12S
ROGERS CITY    SUNNY     82  60  46 W12G17    30.13F
TRAVERSE CITY  MOSUNNY   80  61  52 SW10      30.14F
$$
MIZ007>008-015-231800-
EASTERN UPPER MICHIGAN

CITY           SKY/WX    TMP DP  RH WIND       PRES   REMARKS
KINROSS        MOSUNNY   78  63  59 SW14      30.10R
MACKINAC ISLAN SUNNY     76  61  59 SW17G26   30.11S
NEWBERRY       SUNNY     78  63  60 SW14      30.08S
S. S. MARIE    MOSUNNY   80  64  58 SW10      30.07S
$$
MIZ004>006-011>014-085-231800-
CENTRAL UPPER MICHIGAN

CITY           SKY/WX    TMP DP  RH WIND       PRES   REMARKS
MANISTIQUE     SUNNY     72  63  73 SW14G23   30.09S
ESCANABA       SUNNY     74  64  71 S17G25    30.07F
MENOMINEE      SUNNY    N/A N/A N/A SW13      30.11F
SAWYER-GWINN   SUNNY     77  63  61 SW16      30.06S
$$
MIZ001>003-009>011-084-231800-
WESTERN UPPER MICHIGAN

CITY           SKY/WX    TMP DP  RH WIND       PRES   REMARKS
IRON MOUNTAIN  SUNNY     78  62  57 S10       30.07S
HOUGHTON       CLOUDY    79  63  57 S10       29.97F
COPPER HARBOR    N/A     76  64  66 SW9G17    29.96R
IRONWOOD       SUNNY     79  64  60 S17       29.96F
$$

ABBREVIATIONS USED IN REMARKS
   TC - TEMPERATURE IN CELSIUS
  WCI - WIND CHILL INDEX
   HX - HEAT INDEX
  VSB - VISIBILITY





USA.gov is the U.S. government's official web portal to all federal, state and local government web resources and services.